Regional Weather Roundup
Issued by NWS

Home | Current Version | Previous Version | Graphics & Text | Print | Product List | Glossary On
Versions: 1 2 3 4 5 6 7 8 9 10 11 12 13 14 15 16 17 18 19 20 21 22 23 24 25 26 27 28 29 30 31 32 33 34 35 36 37 38 39 40 41 42 43 44 45 46 47 48 49 50
000
ASUS43 KLMK 241710
RWRKY
KENTUCKY REGIONAL WEATHER ROUNDUP
NATIONAL WEATHER SERVICE LOUISVILLE KY
100 PM EDT THU APR 24 2014

NOTE "FAIR" INDICATES FEW OR NO CLOUDS BELOW 12,000 FEET
WITH NO SIGNIFICANT WEATHER AND/OR OBSTRUCTIONS TO VISIBILITY.

KYZ001>023-026-027-061>063-070>075-241800-
WESTERN AND SOUTH CENTRAL KENTUCKY

CITY           SKY/WX    TMP DP  RH WIND       PRES   REMARKS
PADUCAH        MOSUNNY   76  44  32 SE13      29.87F
HENDERSON      SUNNY     68  39  34 SE8       29.90F
OWENSBORO      MOSUNNY   69  39  33 S9        29.93F
HOPKINSVILLE   MOSUNNY   72  39  29 SE10      29.91F
BOWLING GREEN  NOT AVBL
GLASGOW        MOSUNNY   70  38  31 S7        29.95F
$$

KYZ024-025-028>034-038-045-046-053-241800-
NORTH CENTRAL KENTUCKY

CITY           SKY/WX    TMP DP  RH WIND       PRES   REMARKS
LOUISVILLE/SDF PTSUNNY   66  37  34 E14       29.97F
LOUISVILLE/LOU MOSUNNY   67  38  34 E10       29.99F
FORT KNOX      SUNNY     65  37  34 E9G16     29.95F
$$

KYZ035>037-039>044-047>052-055>060-089>105-241800-
NORTHEAST KENTUCKY

CITY           SKY/WX    TMP DP  RH WIND       PRES   REMARKS
LEXINGTON      PTSUNNY   64  37  36 E8        30.02F
COVINGTON      PTSUNNY   59  28  30 E14       30.03F
FRANKFORT      PTSUNNY   61  40  45 E13       30.01F
$$

KYZ054-064>069-076>088-106>120-241800-
SOUTHEAST KENTUCKY

CITY           SKY/WX    TMP DP  RH WIND       PRES   REMARKS
JACKSON        MOSUNNY   64  34  32 CALM      30.04F
LONDON         SUNNY     68  36  30 S5        30.00F
SOMERSET       MOSUNNY   68  34  28 CALM      29.99F
MIDDLESBORO    SUNNY     71  33  24 S9        30.00F
MONTICELLO     SUNNY     72  38  29 VRB5      29.99F
$$




USA.gov is the U.S. government's official web portal to all federal, state and local government web resources and services.